This is the latest recevied weather packets stored in our database for station/object AJ7DN. If no packets are shown the sender has not sent any weather packets the latest 10 day(s).
| Time | Temp. | Humidity | Pressure | Rain* | Wind** | Luminosity | Snow |
|---|---|---|---|---|---|---|---|
| 1777809161 | 13.33° C | 94% | 1016.2 hPa | 0 mm | - | 0 W/m² | - |
| 1777808859 | 13.33° C | 93% | 1016.2 hPa | 0 mm | - | 0 W/m² | - |
| 1777808555 | 13.33° C | 93% | 1016.1 hPa | 0 mm | - | 0 W/m² | - |
| 1777808252 | 13.33° C | 93% | 1016.4 hPa | 0 mm | - | 0 W/m² | - |
| 1777807951 | 13.89° C | 92% | 1016.2 hPa | 0 mm | - | 0 W/m² | - |
| 1777807648 | 13.89° C | 92% | 1016.2 hPa | 0 mm | - | 0 W/m² | - |
| 1777807346 | 13.89° C | 92% | 1016.2 hPa | 0 mm | - | 0 W/m² | - |
| 1777807041 | 13.89° C | 92% | 1016.2 hPa | 0 mm | - | 0 W/m² | - |
| 1777806738 | 13.89° C | 93% | 1016 hPa | 0 mm | - | 0 W/m² | - |
| 1777806434 | 13.33° C | 94% | 1016.2 hPa | 0 mm | - | 0 W/m² | - |
| 1777806132 | 13.33° C | 95% | 1016.2 hPa | 0 mm | - | 0 W/m² | - |
| 1777805828 | 13.33° C | 96% | 1016 hPa | 0 mm | - | 0 W/m² | - |
| 1777805526 | 12.78° C | 97% | 1016.1 hPa | 0 mm | - | 0 W/m² | - |
| 1777805223 | 12.78° C | 97% | 1016.3 hPa | 0 mm | - | 0 W/m² | - |
| 1777804920 | 12.78° C | 97% | 1016.2 hPa | 0 mm | - | 0 W/m² | - |
| 1777804618 | 12.22° C | 97% | 1016.4 hPa | 0 mm | - | 0 W/m² | - |
| 1777804316 | 12.22° C | 96% | 1016.3 hPa | 0 mm | - | 0 W/m² | - |
| 1777804012 | 12.22° C | 96% | 1016.3 hPa | 0 mm | - | 0 W/m² | - |
| 1777803709 | 12.22° C | 96% | 1016.4 hPa | 0 mm | - | 0 W/m² | - |
| 1777803405 | 12.22° C | 96% | 1016.4 hPa | 0 mm | - | 0 W/m² | - |
| 1777803103 | 12.22° C | 96% | 1016.4 hPa | 0 mm | - | 0 W/m² | - |
| 1777802800 | 12.78° C | 96% | 1016.3 hPa | 0 mm | - | 0 W/m² | - |
| 1777802498 | 12.78° C | 96% | 1016.3 hPa | 0 mm | - | 0 W/m² | - |
| 1777802195 | 12.22° C | 96% | 1016.2 hPa | 0 mm | - | 0 W/m² | - |
| 1777801894 | 12.22° C | 96% | 1016.3 hPa | 0 mm | - | 0 W/m² | - |
* Rain latest hour (hover to see other rain measurements)
** Current wind speed in m/s (hover to see current wind gust speed)